Temperature
23 23 22 22 22 21 21 21 20 20 20 20 19 19 19 19 19 19 18 18 18 18 18 18 18 18 18 18 18 17 18 18 17 17 17 18 18 18 18 18 18 18 18
23 23 22 22 22 22 21 21 21 20 20 20 19 19 19 19 19 19 18 18 18 18 18 18 18 18 18 18 18 18 18 18 17 17 17 17 18 18 18 18 18 18 18
23 23 23 23 22 22 22 21 21 21 20 20 19 19 19 19 19 19 19 19 18 18 18 18 18 18 18 18 18 18 18 18 18 17 17 17 17 18 18 18 18 18 18
24 24 23 23 23 23 22 22 22 21 21 20 20 19 19 19 19 19 19 19 18 18 18 18 18 18 18 18 18 18 18 18 18 17 17 17 17 17 17 18 18 18 18
24 24 24 24 24 23 23 22 22 21 21 20 20 20 20 20 19 19 19 19 19 18 18 18 18 18 18 18 18 18 18 18 17 17 17 17 17 17 17 17 17 17 17
24 24 24 24 24 23 23 22 22 22 21 21 20 20 20 20 20 19 19 19 19 19 19 18 18 18 18 18 18 18 18 18 17 17 17 17 17 17 17 17 17 17 17
24 24 24 24 24 23 23 22 22 22 21 21 21 20 20 20 20 20 19 19 19 19 19 19 18 18 18 18 18 18 18 18 17 17 17 17 17 17 17 17 17 17 17
24 24 24 24 24 24 23 23 22 22 22 21 21 21 20 20 20 19 19 19 19 19 19 19 19 18 18 18 18 18 18 18 17 17 17 17 17 17 17 17 16 16 16
24 24 24 24 24 24 24 23 23 22 22 21 21 21 20 20 20 20 19 19 19 19 19 19 19 18 18 18 18 18 18 17 17 17 17 17 17 17 17 16 16 16 16
24 24 24 24 25 25 24 24 23 23 22 21 21 21 20 20 20 20 19 19 19 19 19 19 19 18 18 18 18 18 17 17 17 17 17 17 17 17 17 16 16 16 16
23 23 24 24 24 24 24 23 23 22 22 21 21 21 20 20 20 20 20 19 19 19 19 19 19 18 18 18 18 18 18 17 17 17 17 17 17 17 17 16 16 16 16
23 23 23 23 23 23 23 23 23 22 22 21 21 21 20 20 20 20 19 19 19 19 19 19 19 18 18 18 18 18 18 17 17 17 17 17 17 17 16 16 16 16 16
22 22 22 23 22 22 22 22 22 22 21 21 21 20 20 20 20 20 19 19 19 19 19 19 18 18 18 18 18 18 17 17 17 17 17 17 16 16 16 16 16 16 16
21 21 21 22 22 22 22 22 21 21 21 21 20 20 20 20 20 20 19 19 19 19 19 18 18 18 18 18 18 17 17 17 17 17 17 17 16 16 16 16 16 16 16
20 20 21 21 21 21 21 21 21 21 20 21 21 20 20 19 19 19 19 19 19 19 18 18 18 18 17 17 17 17 17 17 17 17 17 17 16 16 16 16 16 16 15
20 20 20 20 20 20 20 20 20 20 20 21 20 20 20 19 19 19 19 19 18 18 18 18 18 18 17 17 17 17 17 17 17 17 17 17 16 16 16 16 16 16 15
19 19 20 20 20 20 20 20 20 20 20 20 20 20 19 19 19 18 18 18 18 18 17 17 17 17 17 17 17 17 17 17 17 17 17 17 16 16 16 16 15 15 15
19 19 19 19 19 19 19 19 19 19 19 19 19 19 19 19 19 18 18 18 18 17 17 17 17 17 17 17 17 17 17 17 16 16 16 16 16 16 15 15 15 15 15
19 19 19 19 19 19 19 19 19 19 19 19 18 18 18 18 18 18 18 18 17 17 17 17 17 17 17 17 17 16 16 16 16 16 16 16 16 15 15 15 15 15 15
18 18 18 19 19 19 18 18 18 18 18 18 18 18 17 17 17 17 17 17 17 17 17 17 17 17 17 17 16 16 16 16 16 16 15 15 15 15 15 15 15 15 14
17 18 18 18 18 18 18 18 18 17 17 17 17 17 17 17 17 17 17 16 16 16 16 16 16 16 16 16 16 16 15 15 15 15 15 15 15 15 14 14 14 14 14
17 17 17 17 17 17 17 17 17 17 16 16 16 16 16 16 16 16 16 16 16 16 16 16 16 16 16 15 15 15 15 15 14 14 14 14 14 14 14 14 14 14 13
16 16 16 16 16 16 16 16 16 16 16 16 16 16 16 15 15 15 15 15 15 15 15 15 15 15 15 15 15 14 14 14 14 14 14 14 14 13 13 13 13 13 13
16 16 16 16 15 15 15 15 15 15 15 15 15 15 15 15 15 15 15 15 14 14 14 14 14 14 14 14 14 14 14 14 14 13 13 13 13 13 13 13 13 13 12
15 15 15 15 14 14 14 14 14 14 14 14 14 14 14 14 14 14 14 14 14 14 14 14 14 13 13 13 14 13 13 13 13 13 13 12 12 12 12 12 12 12 12
14 14 14 14 14 14 14 14 14 14 13 13 13 13 13 13 13 13 13 13 13 13 13 13 13 13 13 13 13 13 13 13 13 12 12 12 12 12 12 12 12 12 11
Wind_Speed
9 9 10 9 8 8 8 8 8 7 6 3 3 3 2 2 2 3 5 6 7 7 6 3 3 4 4 3 3 2 2 1 1 1 1 2 2 2 3 3 3 4 5
8 9 9 10 10 10 10 9 9 8 7 5 4 3 2 2 2 2 3 5 6 6 6 5 4 4 3 3 3 3 2 1 2 2 1 2 3 2 2 2 2 3 4
13 12 11 11 11 12 12 12 10 9 8 6 4 3 2 1 1 1 2 3 5 6 6 6 5 4 4 4 4 4 4 3 2 2 3 2 3 2 2 1 2 2 3
13 12 13 13 13 14 12 11 10 9 8 8 6 6 5 4 4 3 3 2 4 5 5 6 5 4 4 4 4 4 3 3 3 2 2 2 2 1 2 2 1 2 3
14 14 15 15 13 12 11 10 9 9 8 8 8 7 5 4 3 2 3 2 2 3 4 5 5 4 4 4 4 4 4 4 4 3 2 2 1 2 2 3 2 2 2
14 13 12 11 10 9 9 9 10 9 9 9 8 8 8 6 4 4 4 3 2 2 3 4 4 4 4 4 4 4 4 4 4 3 3 3 2 3 3 3 3 3 2
12 12 12 12 11 11 11 10 11 10 9 9 9 9 8 7 6 5 5 4 3 3 4 4 4 4 4 4 4 4 4 4 4 4 3 3 3 2 3 2 2 2 2
12 13 13 13 13 13 12 12 12 11 10 10 9 8 7 6 5 5 5 5 5 5 4 5 5 5 4 4 4 4 4 4 5 5 4 3 4 3 3 3 2 2 2
11 12 12 12 13 13 13 13 12 10 10 10 9 7 7 7 7 6 5 4 4 4 5 5 5 4 4 4 4 4 4 4 4 4 5 4 3 3 4 4 4 3 3
7 8 9 11 11 12 11 10 10 10 9 9 9 8 8 8 7 6 6 5 5 4 5 5 5 5 4 4 4 3 3 4 4 3 4 4 3 3 3 4 4 4 4
7 8 8 8 8 8 8 9 8 8 8 9 8 7 7 7 7 6 7 6 5 5 5 5 5 5 5 5 5 5 4 5 4 4 4 5 4 3 3 3 3 4 4
3 6 6 6 7 7 7 7 7 7 7 7 7 7 6 6 6 7 6 6 6 5 5 5 6 6 6 5 5 6 5 5 5 5 5 5 4 4 3 3 4 4 4
4 4 6 7 6 6 6 6 6 5 5 6 6 6 6 7 7 7 6 5 6 5 5 5 6 6 6 6 6 6 5 5 6 5 5 5 4 4 4 4 4 3 3
4 4 4 5 5 5 5 5 4 4 4 5 5 6 6 7 7 6 6 6 5 5 5 6 6 5 5 5 6 6 6 6 6 6 6 6 6 6 5 4 5 4 3
4 3 3 4 3 4 3 4 5 5 5 5 5 5 4 4 4 5 5 5 5 6 5 5 4 4 4 5 5 6 6 6 6 5 5 6 6 7 6 5 5 4 4
2 3 4 4 4 3 3 3 3 4 5 5 4 4 3 3 3 4 4 4 5 5 4 5 5 5 5 6 7 6 5 5 6 5 5 5 6 6 7 7 7 7 6
3 3 4 4 3 3 3 3 4 4 4 4 3 3 3 4 4 5 4 5 5 5 4 5 5 5 5 7 7 7 5 5 5 5 5 4 4 5 4 5 5 6 6
1 2 3 3 3 3 3 2 2 2 2 2 2 1 2 3 4 4 5 5 5 5 5 6 6 6 6 7 7 7 6 5 5 5 5 5 4 4 4 4 4 4 4
1 1 2 3 3 3 3 3 1 2 2 1 1 2 2 2 3 4 4 4 4 5 5 6 7 6 6 6 7 6 4 4 5 5 4 4 4 4 5 5 4 4 3
2 2 2 3 3 2 3 3 2 2 1 1 1 1 2 2 3 4 4 3 4 5 5 5 4 4 4 5 6 7 4 4 4 3 3 4 4 4 6 5 5 5 4
2 2 2 2 1 2 3 2 1 1 2 1 1 1 1 2 3 2 2 3 3 3 3 3 2 2 3 4 5 6 4 4 4 3 3 3 4 4 5 5 4 5 3
2 2 3 3 2 2 2 1 2 3 2 1 1 1 1 1 2 2 2 2 3 3 3 3 2 2 2 2 3 5 5 5 4 3 3 2 4 4 5 4 3 3 3
1 1 2 2 3 2 2 0 2 2 2 2 2 2 1 1 1 1 2 1 2 3 3 3 3 2 1 1 2 3 4 5 3 2 2 2 3 3 3 3 4 4 3
1 1 2 2 2 2 2 1 1 1 0 1 1 2 2 2 2 1 1 1 2 2 3 3 3 2 2 1 1 1 2 2 2 1 1 2 2 2 2 2 2 2 3
1 1 1 1 1 1 2 2 2 1 1 1 1 1 1 1 1 1 1 1 2 3 4 4 3 3 3 3 3 3 2 2 2 2 1 1 2 2 1 1 2 2 2
1 1 1 1 1 0 1 2 2 1 1 1 2 1 1 1 1 0 1 3 1 1 1 2 3 2 3 3 3 3 2 3 4 3 2 2 3 3 3 3 2 2 2
Wind_Direction
208 192 189 187 181 179 179 183 181 180 163 157 165 170 200 203 205 207 204 202 203 197 187 196 191 184 189 195 181 170 175 190 158 114 332 320 289 256 248 244 238 237 235
200 195 190 186 186 187 189 189 189 184 180 178 172 166 166 182 196 202 197 201 202 199 198 190 194 189 184 181 176 168 162 184 164 152 129 328 329 320 284 254 237 240 235
203 199 193 192 190 194 195 197 193 189 185 173 142 121 105 92 138 182 197 204 203 200 196 189 189 187 181 191 194 184 177 189 197 180 166 178 243 300 311 275 252 243 234
203 198 195 195 197 199 195 193 188 187 184 172 170 170 179 194 202 193 198 204 196 195 195 191 186 184 186 196 205 195 191 180 197 202 214 204 182 203 302 309 287 266 252
204 200 199 199 198 193 189 189 183 186 184 181 184 183 193 200 186 172 182 201 203 200 199 190 180 185 194 203 203 194 196 193 192 189 187 194 200 197 213 277 304 306 270
203 201 197 188 186 181 181 182 184 191 187 187 189 192 194 191 183 192 194 203 208 212 205 188 183 190 201 206 204 199 201 204 200 196 191 184 185 198 200 235 266 284 286
196 195 189 184 181 179 183 183 186 194 191 190 196 198 196 190 196 202 203 200 206 214 215 200 193 200 205 205 195 194 206 204 200 203 209 211 211 189 185 205 239 261 284
194 196 192 188 185 183 184 184 188 194 190 194 202 199 194 191 200 205 203 205 212 217 208 199 201 206 203 205 195 200 208 203 205 211 208 214 222 204 199 197 199 246 274
195 195 187 182 182 183 188 187 186 188 189 195 196 196 193 192 198 199 203 208 213 212 199 197 200 204 198 195 189 201 210 199 206 215 218 222 227 214 216 213 203 201 240
194 189 185 184 183 186 182 177 182 188 190 191 198 204 199 197 192 186 201 210 213 209 194 197 199 196 193 192 191 204 213 209 221 221 221 226 231 224 217 217 216 208 212
189 181 177 177 171 165 163 168 175 178 186 193 198 200 198 195 188 197 206 209 205 200 196 196 195 197 199 197 198 208 205 214 227 229 228 235 223 216 215 211 209 210 201
160 155 149 146 152 152 155 164 169 179 192 194 191 193 190 187 196 208 212 202 203 203 202 197 200 203 205 201 204 216 212 215 226 230 228 237 225 215 217 211 214 217 212
103 114 124 130 136 144 153 162 165 174 184 183 188 192 193 194 201 205 201 200 205 205 202 202 209 211 208 204 207 213 217 219 225 224 222 229 218 224 224 220 222 224 218
104 112 121 123 138 149 149 151 154 160 168 169 183 196 205 204 203 203 194 201 204 205 208 211 215 215 214 211 209 210 215 219 223 223 223 225 217 223 221 222 223 217 209
90 102 113 121 130 130 138 145 148 155 160 165 184 202 207 200 196 198 195 202 207 216 211 207 210 210 212 217 210 213 218 220 225 227 229 230 223 221 217 217 214 205 207
108 110 120 134 142 146 145 140 150 163 165 173 192 194 183 192 202 203 192 192 204 208 199 199 202 210 221 213 204 205 219 220 223 231 236 235 232 230 221 220 211 200 203
139 137 138 151 153 148 150 159 170 166 165 166 175 186 185 192 203 210 198 196 201 195 203 212 212 222 229 217 214 210 213 219 223 226 229 232 234 216 218 219 213 211 210
123 131 128 119 130 134 136 157 151 144 149 148 170 193 210 206 203 205 203 199 198 199 207 217 222 225 236 225 221 214 212 222 227 225 220 215 223 220 208 205 211 221 225
141 125 121 119 119 126 128 121 121 119 119 146 199 209 204 217 221 218 215 207 209 215 217 216 216 220 234 223 216 205 211 222 231 230 224 214 216 219 196 197 215 233 249
60 63 71 96 105 112 119 121 132 132 157 206 233 234 219 207 221 222 220 213 215 220 217 222 222 221 236 228 212 201 212 222 229 228 226 221 219 213 193 203 210 230 244
87 86 88 87 87 86 100 102 78 272 260 241 224 221 227 218 219 225 219 212 210 214 219 231 242 239 242 234 216 202 207 218 223 223 227 226 204 200 191 197 211 222 212
58 61 73 58 39 56 92 79 292 286 300 299 279 262 235 222 208 198 221 212 198 210 224 223 238 246 255 248 227 207 208 207 210 220 224 210 185 189 185 189 203 190 161
54 65 92 70 27 28 73 190 282 297 319 339 329 328 341 316 267 224 222 220 210 219 230 223 230 245 236 243 232 210 206 201 203 213 206 192 168 168 181 181 165 153 148
77 75 85 73 21 5 20 302 292 292 296 325 319 331 334 323 330 314 261 237 239 232 225 221 226 238 243 240 225 207 207 200 199 198 153 133 131 141 132 125 143 154 159
179 138 142 166 252 338 348 330 341 21 18 319 301 314 309 287 309 337 326 258 250 226 220 225 218 219 237 241 205 189 207 205 193 167 147 159 164 165 165 156 152 154 155
211 185 186 207 238 264 336 334 346 23 56 345 332 324 315 297 254 213 7 14 328 21 295 228 206 228 224 214 196 182 194 184 159 146 172 192 191 192 194 187 180 171 182
Height
1501 1504 1506 1509 1512 1514 1516 1518 1520 1522 1524 1526 1527 1529 1530 1532 1534 1535 1537 1538 1540 1541 1542 1543 1544 1545 1546 1547 1548 1549 1549 1550 1551 1551 1551 1551 1551 1551 1551 1551 1551 1552 1552
1499 1501 1504 1506 1509 1512 1514 1516 1519 1521 1522 1524 1526 1528 1530 1531 1533 1534 1536 1537 1539 1540 1541 1542 1543 1544 1545 1546 1547 1548 1548 1549 1549 1550 1550 1549 1550 1549 1549 1549 1549 1550 1550
1494 1497 1500 1503 1506 1509 1511 1514 1516 1519 1521 1523 1525 1527 1528 1530 1531 1532 1534 1536 1537 1538 1539 1541 1542 1543 1544 1545 1545 1546 1547 1547 1548 1548 1549 1549 1548 1547 1547 1547 1547 1548 1548
1490 1493 1496 1499 1502 1505 1509 1512 1514 1517 1519 1521 1523 1525 1526 1527 1529 1531 1533 1534 1536 1537 1538 1539 1540 1541 1542 1543 1544 1545 1545 1546 1546 1546 1547 1547 1547 1547 1546 1546 1545 1546 1546
1485 1488 1491 1494 1498 1502 1506 1509 1512 1514 1517 1519 1521 1523 1524 1526 1528 1529 1531 1533 1534 1535 1536 1537 1538 1539 1540 1541 1542 1543 1543 1543 1544 1544 1544 1545 1545 1545 1545 1543 1543 1543 1543
1479 1483 1488 1491 1495 1499 1503 1506 1509 1512 1515 1517 1519 1521 1522 1524 1526 1527 1529 1531 1532 1533 1535 1536 1537 1537 1538 1539 1540 1541 1541 1541 1542 1542 1542 1543 1543 1542 1543 1542 1541 1541 1541
1475 1479 1483 1487 1491 1495 1499 1503 1506 1509 1512 1514 1516 1518 1520 1522 1524 1526 1528 1529 1530 1531 1533 1534 1535 1535 1536 1537 1538 1538 1539 1539 1540 1540 1540 1540 1541 1541 1540 1540 1539 1539 1538
1470 1473 1477 1482 1486 1490 1495 1499 1502 1505 1509 1512 1514 1516 1518 1520 1522 1524 1526 1527 1528 1529 1530 1531 1532 1533 1534 1534 1535 1536 1536 1537 1537 1537 1537 1538 1538 1538 1538 1538 1538 1536 1536
1466 1469 1473 1478 1482 1486 1490 1494 1498 1502 1506 1509 1511 1514 1515 1518 1520 1522 1523 1524 1526 1527 1528 1529 1530 1530 1531 1532 1532 1533 1533 1534 1534 1534 1534 1535 1535 1535 1535 1535 1535 1535 1534
1464 1467 1470 1474 1478 1482 1487 1492 1496 1500 1503 1506 1508 1511 1513 1514 1517 1519 1520 1522 1523 1524 1525 1526 1527 1527 1528 1529 1530 1530 1531 1531 1531 1531 1531 1531 1531 1532 1532 1532 1532 1532 1532
1462 1465 1468 1472 1476 1481 1485 1489 1493 1497 1500 1503 1505 1508 1510 1511 1513 1515 1516 1518 1520 1521 1522 1522 1523 1524 1525 1526 1526 1527 1527 1528 1528 1528 1528 1528 1529 1528 1528 1528 1528 1529 1528
1462 1465 1467 1471 1475 1479 1483 1487 1490 1493 1497 1500 1502 1504 1506 1508 1510 1511 1513 1515 1516 1517 1518 1519 1520 1521 1522 1523 1523 1524 1524 1524 1525 1525 1525 1525 1525 1525 1525 1525 1525 1525 1525
1462 1464 1467 1470 1474 1477 1480 1484 1486 1490 1494 1497 1499 1501 1503 1504 1506 1507 1509 1511 1512 1513 1514 1515 1516 1517 1518 1518 1519 1520 1521 1521 1521 1522 1522 1522 1522 1521 1522 1522 1522 1522 1522
1463 1465 1467 1468 1472 1475 1478 1481 1484 1487 1491 1493 1496 1497 1499 1501 1502 1504 1504 1507 1508 1509 1510 1511 1512 1513 1513 1514 1515 1516 1516 1517 1517 1518 1518 1518 1517 1518 1518 1518 1518 1518 1518
1463 1465 1468 1469 1471 1474 1476 1479 1481 1484 1487 1490 1492 1493 1495 1498 1499 1500 1501 1503 1503 1504 1506 1507 1508 1509 1509 1510 1510 1511 1512 1513 1513 1513 1513 1514 1514 1514 1514 1514 1514 1514 1514
1463 1465 1467 1468 1470 1472 1475 1478 1480 1482 1484 1486 1488 1489 1491 1493 1495 1496 1497 1498 1499 1501 1502 1503 1504 1504 1505 1506 1506 1507 1508 1508 1508 1508 1509 1509 1510 1510 1510 1510 1510 1511 1511
1463 1464 1466 1468 1469 1471 1474 1476 1478 1480 1481 1482 1484 1485 1487 1488 1490 1492 1493 1494 1495 1496 1498 1499 1499 1499 1500 1501 1502 1502 1503 1503 1503 1504 1504 1504 1505 1506 1506 1506 1506 1507 1507
1464 1464 1465 1467 1469 1471 1473 1475 1476 1477 1478 1478 1480 1482 1483 1483 1485 1487 1488 1489 1490 1491 1492 1494 1494 1494 1495 1496 1497 1497 1498 1498 1499 1499 1499 1500 1500 1501 1502 1502 1502 1502 1503
1464 1465 1466 1467 1468 1470 1471 1473 1474 1473 1475 1476 1477 1479 1479 1479 1481 1482 1483 1484 1486 1487 1488 1488 1489 1490 1490 1491 1492 1493 1493 1493 1494 1495 1495 1495 1495 1496 1497 1498 1498 1498 1498
1465 1465 1466 1466 1467 1469 1470 1470 1471 1471 1471 1472 1474 1475 1476 1476 1477 1478 1479 1480 1482 1482 1483 1483 1484 1484 1485 1486 1487 1488 1488 1488 1489 1490 1490 1490 1491 1491 1492 1493 1493 1493 1494
1464 1465 1466 1466 1467 1467 1468 1468 1469 1469 1469 1470 1472 1472 1473 1473 1473 1473 1475 1476 1477 1478 1477 1478 1478 1480 1481 1482 1482 1483 1483 1484 1484 1485 1485 1485 1486 1486 1487 1488 1489 1489 1490
1463 1464 1465 1465 1467 1467 1466 1466 1468 1468 1468 1469 1469 1470 1470 1470 1470 1470 1471 1472 1472 1472 1473 1474 1474 1475 1476 1477 1477 1478 1479 1479 1480 1480 1481 1481 1482 1482 1483 1483 1484 1485 1486
1463 1464 1464 1464 1465 1465 1466 1465 1465 1467 1466 1466 1466 1466 1466 1467 1467 1467 1467 1467 1468 1469 1470 1471 1471 1471 1472 1472 1473 1474 1475 1475 1475 1476 1477 1477 1478 1478 1479 1479 1480 1481 1481
1462 1462 1462 1462 1463 1464 1464 1464 1464 1464 1464 1464 1463 1463 1463 1463 1464 1464 1464 1464 1464 1465 1466 1467 1468 1467 1468 1468 1469 1470 1470 1471 1471 1472 1473 1473 1474 1475 1475 1476 1476 1476 1477
1461 1461 1461 1461 1461 1462 1462 1462 1461 1461 1461 1461 1461 1460 1461 1461 1461 1461 1461 1461 1461 1462 1462 1463 1464 1463 1463 1464 1465 1465 1466 1467 1468 1469 1469 1470 1470 1471 1471 1472 1472 1472 1473
1459 1459 1459 1460 1459 1459 1459 1459 1459 1459 1459 1458 1458 1458 1458 1458 1458 1457 1457 1457 1458 1457 1458 1458 1459 1459 1460 1461 1461 1462 1463 1464 1464 1465 1465 1466 1467 1467 1467 1468 1468 1468 1468